DELTA 1 DEB, 27788

Orbit data source: Space-Track

DELTA 1 DEB, 27788 is space debris in LEO originally from a launch on Sat, 06 Nov 1965 UTC launched from the Air Force Eastern Test Range (AFETR). Debris objects in space refer to the collection of defunct objects orbiting the Earth. Examples of debris include non-operational satellites, rocket bodies, and fragments generated from explosions, collisions, or faulty payload assembly.

Loading next visibility...
Identifier
27788, 1965-089E
Orbit
LEO
Country
Flag of USUS
Related business
Manufacturer
Unknown
Mission
Spacecraft
Bus & Motor
Unknown
Mass
Unknown
Launch date (UTC)
1965-11-06 (60 years ago)
Launch vehicle
Unknown
Launch site
Air Force Eastern Test Range (AFETR)
Object type
Payload
Rocket body
Debris
Shape & HBR
Unknown shape, 0.1 m
Radar Cross Section
Small (<0.1 m²)

Expand to show TLE details & history
Last TLE update: 3 weeks ago

TLE from 3 weeks ago
0 DELTA 1 DEB
1 27788U 65089E   26016.90099715  .00000185  00000-0  12527-2 0  9998
2 27788  59.3827 120.8623 0609440 128.2288 343.5811 12.28878608595301
Epoch: 2026-01-16T21:37Z
TLE epoch observation values (Epoch: 2026-01-16T21:37:26.153Z)
Latitude
54.25695°
Longitude
165.28292°
Altitude
1,100.444 km
Speed
7.517 km/s
True Right ascension
16h 23m 54s
True Declination
54° 06' 04"
Sunlit
Object was in daylight at epoch
Visualization orbit readout
Latitude
Unknown
Longitude
Unknown
Altitude
Unknown
Speed
Unknown
Apparent Right ascension
Unknown
Apparent Declination
Unknown
Sunlit
N/A
Visualization observer readout
Local Sidereal Time
23:44:43
Azimuth
Unknown
Elevation
Unknown
Doppler factor
Unknown
Orbital elements
Apogee altitude
2,036.874 km
Perigee altitude
1,070.104 km
Semi-major axis
7,931.626 km
Eccentricity
0.06094
Inclination
59.3827°
RAAN
120.8623°
Arg. of periapsis
128.2288°
True anomaly
341.45253°
Mean anomaly
343.5811°
Eccentric anomaly
342.533°
Mean motion
3.07256 °/min
Orbital period
117.17 mins
BSTAR
0.0012527
Loading maneuver chart data...
Computing Atmospheric mass density...
Loading historical data...
Loading historical data...
Loading historical data...
Loading historical data...
Loading historical data...
Loading historical data...
Loading historical data...

Documentation

Showing up to 5 results
|